This is the latest recevied weather packets stored in our database for station/object VE6KEE-13. If no packets are shown the sender has not sent any weather packets the latest 10 day(s).
| Time | Temp. | Humidity | Pressure | Rain* | Wind** | Luminosity | Snow |
|---|---|---|---|---|---|---|---|
| 1778216927 | 13.89° C | 30% | 1013.6 hPa | 0 mm | - | - | - |
| 1778216026 | 13.89° C | 30% | 1013.5 hPa | 0 mm | - | - | - |
| 1778215126 | 14.44° C | 29% | 1013.4 hPa | 0 mm | - | - | - |
| 1778214225 | 15° C | 28% | 1013.2 hPa | 0 mm | - | - | - |
| 1778213330 | 15.56° C | 28% | 1013.1 hPa | 0 mm | - | - | - |
| 1778212423 | 15.56° C | 27% | 1013 hPa | 0 mm | - | - | - |
| 1778211523 | 16.11° C | 26% | 1012.9 hPa | 0 mm | - | - | - |
| 1778210622 | 16.67° C | 25% | 1012.8 hPa | 0 mm | - | - | - |
| 1778209723 | 17.22° C | 24% | 1012.6 hPa | 0 mm | - | - | - |
| 1778208821 | 17.78° C | 23% | 1012.5 hPa | 0 mm | - | - | - |
| 1778207928 | 18.33° C | 22% | 1012.2 hPa | 0 mm | - | - | - |
| 1778207018 | 18.89° C | 22% | 1012 hPa | 0 mm | - | - | - |
| 1778206118 | 19.44° C | 21% | 1011.8 hPa | 0 mm | - | - | - |
| 1778205218 | 19.44° C | 20% | 1011.6 hPa | 0 mm | - | - | - |
| 1778204318 | 20° C | 19% | 1011.5 hPa | 0 mm | - | - | - |
| 1778203418 | 20° C | 19% | 1011.4 hPa | 0 mm | - | - | - |
| 1778202523 | 20.56° C | 18% | 1011.3 hPa | 0 mm | - | - | - |
| 1778201618 | 21.11° C | 18% | 1011.3 hPa | 0 mm | - | - | - |
| 1778200718 | 21.11° C | 17% | 1011.4 hPa | 0 mm | - | - | - |
| 1778199812 | 21.11° C | 17% | 1011.4 hPa | 0 mm | - | - | - |
| 1778198912 | 21.67° C | 17% | 1011.4 hPa | 0 mm | - | - | - |
| 1778198012 | 21.67° C | 17% | 1011.3 hPa | 0 mm | - | - | - |
| 1778197117 | 22.22° C | 16% | 1011.2 hPa | 0 mm | - | - | - |
| 1778196212 | 22.22° C | 16% | 1010.9 hPa | 0 mm | - | - | - |
| 1778195312 | 22.78° C | 15% | 1011 hPa | 0 mm | - | - | - |
* Rain since midnight (hover to see other rain measurements)
** Current wind speed in m/s (hover to see current wind gust speed)